Location: Unspecified
(42.3650°N, 71.1030°W)
Time: 11:51:55
(UTC+00:00)

SJ-6B - Visible Passes

Search period start: 18 June 2024 00:00
Search period end: 28 June 2024 00:00
Orbit: 489 x 548 km, 97.4° (Epoch: 18 June)

Date Brightness Start Highest point End Pass type
(mag) Time Alt. Az. Time Alt. Az. Time Alt. Az.
20 Jun 5.5 01:08:54 10° WSW 01:10:44 13° W 01:12:35 10° WNW visible
21 Jun 5.3 00:53:55 10° SW 00:56:37 20° W 00:59:20 10° NW visible
26 Jun 5.9 01:20:14 10° W 01:20:41 10° W 01:21:09 10° W visible
27 Jun 5.5 01:04:16 10° SW 01:06:28 15° W 01:08:42 10° NW visible
